345P/LINEAR (2016)

Japanese version
Home page
Updated on December 31, 2016

---------------------------------------------------------------------

* Profile

Designation 345P/2016 Q3
Rediscovery Date August 29, 2016
Magnitude 18.9 mag
Rediscoverer R. A. Kowalski (Mount Lemmon)

* Pictures

* Orbital Elements

Epoch 2016 July 31.0 TT = JDT 2457600.5
T 2016 July 16.18288 TT                                 MPCW
q   3.1584941            (2000.0)            P               Q
n   0.12110595     Peri.  196.61575     +0.98790921     +0.15367856
a   4.0459986      Node   154.51706     -0.13628564     +0.92373873
e   0.2193536      Incl.    2.72466     -0.07390275     +0.35084136
P   8.14
From 98 observations 2008 Sept. 2-2016 Nov. 1, mean residual 0".5.

* Magnitudes Graph

        m1 = 12.0 + 5 log d + 10.0 log r

---------------------------------------------------------------------

The orbital elements are published on M.P.E.C. 2016-V116.
The magnitudes graphs are made with Comet for Windows.

---------------------------------------------------------------------

Copyright(C) Seiichi Yoshida (comet@aerith.net). All rights reserved.